time_stamp(utc),avg(mph),gust(mph),direction(deg),12m_air_temp(f),sonic_u(cm/s),sonic_v(cm/s),sonic_w(cm/s),pressure,2m_air_temp(f),pyranometer(W/m^2)
"2020-11-28 00:02:39+00",5.9,5.9,,53.2,-263,48,4,1016,52.1,0
"2020-11-28 00:07:39+00",6.0,7.0,,53.1,-265,43,3,1016.03,52.1,0
"2020-11-28 00:12:39+00",5.6,6.6,,53.1,-240,73,2,1015.94,52,0
"2020-11-28 00:17:39+00",5.0,6.0,,53.2,-163,141,3,1015.62,51.9,0
"2020-11-28 00:22:39+00",4.9,5.9,,53.2,-106,180,3,1015.42,51.8,0
"2020-11-28 00:27:39+00",4.7,4.7,,53.2,-104,177,4,1015.42,51.7,0
"2020-11-28 00:32:39+00",5.1,6.1,,53.1,-110,186,3,1015.25,51.4,0
"2020-11-28 00:37:39+00",6.1,6.1,,53.2,-174,200,6,1015.2,51.1,0
"2020-11-28 00:42:39+00",5.5,6.5,,52.9,-126,198,10,1015.3,50.9,0
"2020-11-28 00:47:39+00",6.5,7.5,,53.1,-164,230,9,1015.31,50.7,0
"2020-11-28 00:52:39+00",5.5,5.5,,53.6,-154,179,9,1015.43,50.5,0
"2020-11-28 00:57:39+00",5.5,6.5,,53.4,-189,153,10,1015.65,50.4,0
"2020-11-28 01:02:39+00",5.8,5.8,,53,-223,134,11,1015.77,50.4,0
"2020-11-28 01:07:39+00",6.3,7.3,,52.6,-242,141,8,1015.73,50.5,0
"2020-11-28 01:12:39+00",6.9,7.9,,52.3,-261,167,2,1015.76,50.6,0
"2020-11-28 01:17:39+00",8.3,10.3,,52.5,-302,213,19,1015.74,50.9,0
"2020-11-28 01:22:39+00",9.2,11.2,,52.7,-317,272,17,1015.68,51.1,0
"2020-11-28 01:27:39+00",8.8,10.8,,52.9,-266,283,18,1015.64,51.4,0
"2020-11-28 01:32:39+00",9.6,10.6,,52.8,-312,314,24,1015.64,51.7,0
"2020-11-28 01:37:39+00",10.6,11.6,,52.7,-330,345,20,1015.56,51.8,0
"2020-11-28 01:42:39+00",11.1,12.1,,52.6,-318,380,14,1015.55,51.8,0
"2020-11-28 01:47:39+00",10.6,12.6,,52.5,-273,387,15,1015.57,51.8,0
"2020-11-28 01:52:39+00",10.4,11.4,,52.6,-277,375,23,1015.65,51.7,0
"2020-11-28 01:57:39+00",10.4,11.4,,52.5,-309,341,23,1015.8,51.7,0
"2020-11-28 02:02:39+00",8.8,9.8,,52.4,-247,301,14,1015.79,51.7,0
"2020-11-28 02:07:39+00",9.2,10.2,,52.2,-261,318,10,1015.74,51.5,0
"2020-11-28 02:12:39+00",8.9,10.9,,52.3,-244,318,18,1015.74,51.5,0
"2020-11-28 02:17:39+00",10.1,12.1,,52.2,-264,378,20,1015.79,51.5,0
"2020-11-28 02:22:39+00",8.0,9.0,,51.9,-208,290,14,1015.81,51.4,0
"2020-11-28 02:27:39+00",9.4,10.4,,51.7,-210,350,3,1015.74,51.2,0
"2020-11-28 02:32:39+00",7.9,8.9,,51.3,-162,312,13,1015.75,51,0
"2020-11-28 02:37:39+00",8.3,10.3,,51,-173,316,14,1015.75,50.6,0
"2020-11-28 02:42:39+00",9.0,11.0,,51,-183,355,12,1015.75,50.1,0
"2020-11-28 02:47:39+00",8.8,9.8,,50.8,-187,337,11,1015.84,49.8,0
"2020-11-28 02:52:39+00",8.0,9.0,,50.5,-163,314,15,1015.77,49.5,0
"2020-11-28 02:57:39+00",8.0,8.0,,50.3,-156,313,10,1015.77,49.1,0
"2020-11-28 03:02:39+00",7.8,8.8,,50.1,-190,281,15,1016.02,48.8,0
"2020-11-28 03:07:39+00",7.9,8.9,,50.1,-177,292,13,1016,48.5,0
"2020-11-28 03:12:39+00",7.5,7.5,,50,-177,276,12,1015.87,48.3,0
"2020-11-28 03:17:39+00",7.5,7.5,,50,-174,282,17,1015.87,48.1,0
"2020-11-28 03:22:39+00",8.2,8.2,,50,-182,313,15,1015.86,47.8,0
"2020-11-28 03:27:39+00",7.8,8.8,,49.9,-148,304,11,1015.68,47.6,0
"2020-11-28 03:32:39+00",7.9,8.9,,49.7,-160,308,14,1015.67,47.5,0
"2020-11-28 03:37:39+00",8.8,9.8,,49.6,-172,345,16,1015.63,47.3,0
"2020-11-28 03:42:39+00",8.9,8.9,,49.4,-143,363,11,1015.48,47.2,0
"2020-11-28 03:47:39+00",8.3,9.3,,49,-141,339,10,1015.56,47,0
"2020-11-28 03:52:39+00",7.7,8.7,,48.6,-119,321,4,1015.52,46.9,0
"2020-11-28 03:57:39+00",6.4,7.4,,48.3,-113,253,6,1015.61,46.7,0
"2020-11-28 04:02:39+00",6.1,6.1,,48.2,-108,236,8,1015.55,46.5,0
"2020-11-28 04:07:39+00",6.4,7.4,,48.2,-113,252,6,1015.51,46.3,0
"2020-11-28 04:12:39+00",7.0,7.0,,48.2,-131,277,12,1015.46,46.3,0
"2020-11-28 04:17:39+00",7.7,7.7,,48.2,-132,311,8,1015.48,46.2,0
"2020-11-28 04:22:39+00",7.3,8.3,,48,-117,297,8,1015.4,46.2,0
"2020-11-28 04:27:39+00",7.1,8.1,,47.8,-135,275,10,1015.48,46.3,0
"2020-11-28 04:32:39+00",7.1,8.1,,47.7,-99,290,6,1015.37,46.4,0
"2020-11-28 04:37:39+00",6.9,7.9,,47.6,-87,286,7,1015.47,46.5,0
"2020-11-28 04:42:39+00",6.5,7.5,,47.6,-65,275,5,1015.36,46.5,0
"2020-11-28 04:47:39+00",5.8,6.8,,47.7,-72,236,4,1015.35,46.6,0
"2020-11-28 04:52:39+00",6.4,7.4,,47.9,-61,269,2,1015.37,46.6,0
"2020-11-28 04:57:39+00",5.3,6.3,,48.1,-38,225,6,1015.3,46.7,0
"2020-11-28 05:02:39+00",6.0,7.0,,48.4,-18,262,6,1015.22,46.8,0
"2020-11-28 05:07:39+00",6.4,7.4,,48.7,-28,267,8,1015.18,46.9,0
"2020-11-28 05:12:39+00",5.0,6.0,,49,-64,200,9,1015.29,47,0
"2020-11-28 05:17:39+00",3.7,4.7,,49,-95,118,7,1015.29,47.2,0
"2020-11-28 05:22:39+00",3.1,3.1,,49.1,-124,-7,5,1015.29,47.3,0
"2020-11-28 05:27:39+00",4.5,5.5,,49.1,-70,-178,-5,1015.13,47.6,0
"2020-11-28 05:32:39+00",5.9,6.9,,48.9,-55,-240,-8,1015.06,47.8,0
"2020-11-28 05:37:39+00",4.8,5.8,,49.1,-39,-191,-7,1015,48,0
"2020-11-28 05:42:39+00",3.4,3.4,,49.4,-47,-125,-5,1014.86,48.2,0
"2020-11-28 05:47:39+00",3.4,3.4,,49.6,-112,-88,12,1014.86,48.3,0
"2020-11-28 05:52:39+00",1.3,2.3,,49.7,-27,-36,3,1014.85,48.4,0
"2020-11-28 05:57:39+00",4.6,5.6,,49.7,197,0,4,1014.58,48.4,0
"2020-11-28 06:02:39+00",3.2,5.2,,49.9,135,7,8,1014.7,48.4,0
"2020-11-28 06:07:39+00",3.6,4.6,,50.2,140,-29,3,1014.63,48.3,0
"2020-11-28 06:12:39+00",2.8,3.8,,50.3,110,-20,2,1014.64,48.3,0
"2020-11-28 06:17:39+00",2.2,3.2,,50.4,69,34,2,1014.78,48.4,0
"2020-11-28 06:22:39+00",1.7,2.7,,50.5,33,60,-3,1014.83,48.4,0
"2020-11-28 06:27:39+00",1.4,2.4,,50.5,-31,35,-7,1014.74,48.4,0
"2020-11-28 06:32:39+00",2.3,3.3,,50.4,5,87,-1,1014.85,48.4,0
"2020-11-28 06:37:39+00",2.8,3.8,,50.5,-8,109,-2,1014.82,48.4,0
"2020-11-28 06:42:39+00",3.4,3.4,,50.5,35,127,-2,1014.67,48.4,0
"2020-11-28 06:47:39+00",2.3,3.3,,50.5,-3,85,1,1014.71,48.5,0
"2020-11-28 06:52:39+00",2.1,2.1,,50.5,-51,60,1,1014.73,48.5,0
"2020-11-28 06:57:39+00",3.5,3.5,,50.5,-111,101,11,1014.82,48.5,0
"2020-11-28 07:02:39+00",3.4,3.4,,50.5,-118,78,8,1014.85,48.5,0
"2020-11-28 07:07:39+00",4.1,5.1,,50.5,-161,-75,5,1014.89,48.5,0
"2020-11-28 07:12:39+00",4.0,5.0,,50.4,-162,-84,-4,1014.71,48.4,0
"2020-11-28 07:17:39+00",4.8,4.8,,50.2,-201,-45,2,1014.79,48.4,0
"2020-11-28 07:22:39+00",5.0,5.0,,50.3,-218,-28,11,1014.82,48.4,0
"2020-11-28 07:27:39+00",6.6,7.6,,50.3,-288,63,8,1014.97,48.4,0
"2020-11-28 07:32:39+00",6.4,7.4,,50.2,-273,74,6,1014.91,48.4,0
"2020-11-28 07:37:39+00",6.5,7.5,,49.9,-276,80,6,1014.83,48.5,0
"2020-11-28 07:42:39+00",7.2,7.2,,49.8,-285,149,7,1014.88,48.6,0
"2020-11-28 07:47:39+00",6.7,7.7,,49.7,-269,140,12,1014.77,48.7,0
"2020-11-28 07:52:39+00",6.5,7.5,,49.6,-262,121,15,1014.77,48.7,0
"2020-11-28 07:57:39+00",7.2,7.2,,49.5,-310,104,14,1014.89,48.6,0
"2020-11-28 08:02:39+00",6.6,7.6,,49.4,-274,124,7,1014.91,48.4,0
"2020-11-28 08:07:39+00",8.1,8.1,,49.5,-329,161,13,1015.02,48.2,0
"2020-11-28 08:12:39+00",6.9,7.9,,49.3,-300,96,10,1015.09,48,0
"2020-11-28 08:17:39+00",5.6,6.6,,49.2,-240,40,9,1015.11,47.9,0
"2020-11-28 08:22:39+00",5.3,5.3,,49.1,-226,17,2,1015.06,47.9,0
"2020-11-28 08:27:39+00",5.6,6.6,,49.1,-241,42,0,1014.95,47.8,0
"2020-11-28 08:32:39+00",4.1,5.1,,49,-184,24,2,1014.93,47.8,0
"2020-11-28 08:37:39+00",5.0,6.0,,48.8,-211,64,5,1014.93,47.7,0
"2020-11-28 08:42:39+00",5.8,5.8,,48.7,-248,79,11,1014.89,47.5,0
"2020-11-28 08:47:39+00",5.4,5.4,,48.8,-234,49,3,1014.97,47.3,0
"2020-11-28 08:52:39+00",4.5,5.5,,48.8,-197,9,8,1014.91,47.2,0
"2020-11-28 08:57:39+00",4.9,4.9,,48.8,-214,19,6,1014.95,47.3,0
"2020-11-28 09:02:39+00",4.7,4.7,,48.9,-206,32,5,1014.92,47.2,0
"2020-11-28 09:07:39+00",4.3,5.3,,48.9,-186,38,10,1014.99,47.3,0
"2020-11-28 09:12:39+00",4.4,4.4,,48.8,-179,71,8,1014.85,47.3,0
"2020-11-28 09:17:39+00",3.2,4.2,,48.8,-133,24,3,1014.79,47.2,0
"2020-11-28 09:22:39+00",4.0,4.0,,48.6,-163,49,0,1014.83,47,0
"2020-11-28 09:27:39+00",4.1,5.1,,48.5,-169,41,9,1014.82,46.9,0
"2020-11-28 09:32:39+00",4.5,5.5,,48.4,-198,2,4,1014.82,46.9,0
"2020-11-28 09:37:39+00",6.2,6.2,,48.4,-275,20,8,1014.93,46.9,0
"2020-11-28 09:42:39+00",6.2,6.2,,48.4,-274,15,9,1014.93,46.6,0
"2020-11-28 09:47:39+00",6.2,6.2,,48.3,-276,21,7,1014.98,46.6,0
"2020-11-28 09:52:39+00",5.9,6.9,,48.3,-262,1,5,1015.04,46.6,0
"2020-11-28 09:57:39+00",6.4,6.4,,48.3,-280,-17,6,1015.12,46.6,0
"2020-11-28 10:02:39+00",5.1,6.1,,48.3,-207,-62,3,1015.07,46.7,0
"2020-11-28 10:07:39+00",5.0,6.0,,48.3,-202,-63,-2,1015.09,46.7,0
"2020-11-28 10:12:39+00",5.7,5.7,,48.5,-237,-62,1,1015.15,46.8,0
"2020-11-28 10:17:39+00",6.1,6.1,,48.6,-259,-58,1,1015.17,46.9,0
"2020-11-28 10:22:39+00",5.9,6.9,,48.7,-228,-82,3,1015.14,47,0
"2020-11-28 10:27:39+00",5.7,5.7,,48.8,-218,-93,4,1015.2,46.9,0
"2020-11-28 10:32:39+00",5.7,5.7,,49.1,-244,-57,3,1015.2,46.9,0
"2020-11-28 10:37:39+00",6.5,7.5,,49.2,-279,-55,3,1015.24,46.9,0
"2020-11-28 10:42:39+00",6.8,6.8,,49.3,-305,-17,5,1015.34,46.9,0
"2020-11-28 10:47:39+00",6.4,7.4,,49.4,-286,24,8,1015.33,47,0
"2020-11-28 10:52:39+00",5.1,6.1,,49.5,-225,26,4,1015.35,47.3,0
"2020-11-28 10:57:39+00",4.6,5.6,,49.6,-199,15,3,1015.2,47.5,0
"2020-11-28 11:02:39+00",3.8,3.8,,49.7,-163,8,5,1015.32,47.7,0
"2020-11-28 11:07:39+00",4.4,4.4,,49.7,-184,-20,2,1015.1,47.8,0
"2020-11-28 11:12:39+00",3.8,3.8,,49.8,-164,23,5,1015.11,47.8,0
"2020-11-28 11:17:39+00",4.3,4.3,,49.9,-180,52,4,1015.16,47.8,0
"2020-11-28 11:22:39+00",5.3,5.3,,49.9,-229,62,7,1015.13,47.7,0
"2020-11-28 11:27:39+00",5.7,5.7,,49.8,-232,104,12,1015.11,47.5,0
"2020-11-28 11:32:39+00",5.6,6.6,,49.5,-245,61,10,1015.18,47.4,0
"2020-11-28 11:37:39+00",6.5,7.5,,49.1,-291,43,5,1015.3,47.5,0
"2020-11-28 11:42:39+00",8.3,9.3,,49,-364,97,12,1015.34,47.7,0
"2020-11-28 11:47:39+00",8.0,10.0,,48.4,-364,87,26,1015.37,47.8,0
"2020-11-28 11:52:39+00",10.2,11.2,,48.4,-451,112,20,1015.43,47.8,0
"2020-11-28 11:57:39+00",8.6,9.6,,48.2,-383,10,21,1015.37,47.9,0
"2020-11-28 12:02:39+00",8.4,9.4,,48.2,-369,87,25,1015.39,47.9,0
"2020-11-28 12:07:39+00",9.3,10.3,,48.2,-419,83,14,1015.42,47.9,0
"2020-11-28 12:12:39+00",10.2,11.2,,48.4,-447,92,22,1015.4,48.1,0
"2020-11-28 12:17:39+00",8.9,9.9,,48.3,-394,0,8,1015.45,48.1,0
"2020-11-28 12:22:39+00",8.9,9.9,,48.1,-395,54,15,1015.59,48.2,0
"2020-11-28 12:27:39+00",7.2,8.2,,48.2,-325,26,4,1015.56,48.2,0
"2020-11-28 12:32:39+00",5.1,6.1,,48.3,-224,8,15,1015.56,48.2,0
"2020-11-28 12:37:39+00",7.2,8.2,,48.4,-325,7,3,1015.57,48.3,0
"2020-11-28 12:42:39+00",6.8,7.8,,48.6,-302,-24,7,1015.5,48.3,0
"2020-11-28 12:47:39+00",6.5,7.5,,48.8,-286,-24,0,1015.62,48.5,0
"2020-11-28 12:52:39+00",7.2,8.2,,49.1,-318,-32,4,1015.72,48.6,0
"2020-11-28 12:57:39+00",6.8,7.8,,49.5,-274,-82,7,1015.73,48.7,0
"2020-11-28 13:02:39+00",6.1,7.1,,49.9,-258,-133,2,1015.69,48.9,0
"2020-11-28 13:07:39+00",7.4,8.4,,50.4,-301,-161,9,1015.74,49.1,0
"2020-11-28 13:12:39+00",7.3,8.3,,50.8,-265,-191,6,1015.7,49.5,0
"2020-11-28 13:17:39+00",6.6,7.6,,50.8,-250,-165,7,1015.63,49.8,0
"2020-11-28 13:22:39+00",8.0,9.0,,50.8,-325,-200,3,1015.59,50.1,0
"2020-11-28 13:27:39+00",8.3,9.3,,50.8,-344,-170,0,1015.6,50.4,0
"2020-11-28 13:32:39+00",8.3,10.3,,50.9,-327,-110,12,1015.52,50.6,0
"2020-11-28 13:37:39+00",9.4,11.4,,51,-395,-112,0,1015.51,50.9,0
"2020-11-28 13:42:39+00",9.1,10.1,,51,-395,-87,6,1015.64,51.1,0
"2020-11-28 13:47:39+00",9.3,10.3,,51.3,-387,-107,0,1015.62,51.6,0
"2020-11-28 13:52:39+00",8.6,10.6,,51.4,-346,-160,23,1015.53,52.4,0
"2020-11-28 13:57:39+00",9.1,10.1,,51.2,-388,-80,12,1015.55,52.9,0
"2020-11-28 14:02:39+00",11.3,12.3,,51.2,-496,-80,14,1015.48,53.4,0
"2020-11-28 14:07:39+00",9.7,11.7,,51.3,-431,34,18,1015.49,54,0
"2020-11-28 14:12:39+00",11.2,12.2,,51.1,-873,614,-103,1015.41,54,0
"2020-11-28 14:17:39+00",12.6,13.6,,51,-570,26,14,1015.42,54,0
"2020-11-28 14:22:39+00",13.5,14.5,,51.1,-596,163,15,1015.5,54.1,0
"2020-11-28 14:27:39+00",12.6,13.6,,50.9,-541,155,10,1015.49,54.2,0
"2020-11-28 14:32:39+00",13.4,14.4,,51,-606,147,32,1015.53,54.3,0
"2020-11-28 14:37:39+00",10.6,12.6,,51.4,-434,178,36,1015.56,54.4,0
"2020-11-28 14:42:39+00",11.1,13.1,,51.6,-428,231,58,1015.65,54.6,0
"2020-11-28 14:47:39+00",13.0,14.0,,51.4,-535,255,13,1015.7,54.4,0
"2020-11-28 14:52:39+00",11.3,13.3,,51.5,-428,247,37,1015.71,54,0
"2020-11-28 14:57:39+00",10.7,11.7,,51.8,-425,241,55,1015.58,54.1,0
"2020-11-28 15:02:39+00",12.0,13.0,,51.8,-444,309,4,1015.63,54.4,0
"2020-11-28 15:07:39+00",11.0,12.0,,52,-409,284,19,1015.62,54.6,0
"2020-11-28 15:12:39+00",11.1,12.1,,52.1,-417,279,7,1015.55,54.7,0
"2020-11-28 15:17:39+00",11.2,12.2,,52.4,-440,243,18,1015.57,54.8,0
"2020-11-28 15:22:39+00",10.7,12.7,,52.4,-382,289,29,1015.63,55,0
"2020-11-28 15:27:39+00",12.0,14.0,,52.6,-434,339,23,1015.56,55.2,0
"2020-11-28 15:32:39+00",12.0,14.0,,52.8,-453,301,13,1015.57,55.2,0
"2020-11-28 15:37:39+00",9.0,11.0,,53.4,-339,235,37,1015.6,55.5,0
"2020-11-28 15:42:39+00",11.6,12.6,,53.3,-433,304,10,1015.51,55.8,0
"2020-11-28 15:47:39+00",11.1,12.1,,53.5,-419,264,25,1015.48,55.9,0
"2020-11-28 15:52:39+00",11.4,13.4,,53.7,-454,245,13,1015.4,56.2,0
"2020-11-28 15:57:39+00",8.5,9.5,,53.9,-325,215,23,1015.28,56.4,0
"2020-11-28 16:02:39+00",11.0,12.0,,54.2,-397,277,20,1015.27,56.8,0
"2020-11-28 16:07:39+00",10.2,12.2,,54.4,-348,247,60,1015.19,57,0
"2020-11-28 16:12:39+00",11.7,11.7,,54,-501,163,14,1015.14,57.3,0
"2020-11-28 16:17:39+00",10.4,13.4,,54.3,-397,245,63,1015.09,57.8,0
"2020-11-28 16:22:39+00",14.1,15.1,,54.6,-541,349,8,1015.01,57.8,0
"2020-11-28 16:27:39+00",13.8,15.8,,54.6,-503,358,22,1015.02,57.5,0
"2020-11-28 16:32:39+00",13.1,15.1,,54.9,-505,350,19,1014.99,57.4,0
"2020-11-28 16:37:39+00",11.6,12.6,,54.7,-449,255,16,1015.08,57.5,0
"2020-11-28 16:42:39+00",11.9,14.9,,55.1,-500,164,65,1015,57.8,0
"2020-11-28 16:47:39+00",12.5,13.5,,55,-560,108,17,1014.92,58.3,0
"2020-11-28 16:52:39+00",13.0,16.0,,54.7,-575,150,31,1014.87,58.7,0
"2020-11-28 16:57:39+00",14.0,17.0,,55.1,-589,235,12,1014.93,58.8,0
"2020-11-28 17:02:39+00",14.1,17.1,,55.3,-613,262,20,1014.89,58.8,0
"2020-11-28 17:07:39+00",13.0,16.0,,55.2,-558,210,46,1014.79,58.4,0
"2020-11-28 17:12:39+00",11.8,13.8,,55.1,-527,127,22,1014.92,58.3,0
"2020-11-28 17:17:39+00",12.1,15.1,,55,-539,149,21,1014.79,58.6,0
"2020-11-28 17:22:39+00",11.2,15.2,,55.5,-458,204,67,1014.73,58.7,0
"2020-11-28 17:27:39+00",13.7,14.7,,55.7,-602,148,32,1014.69,59,0
"2020-11-28 17:32:39+00",12.2,14.2,,55.4,-509,158,33,1014.55,59.3,0
"2020-11-28 17:37:39+00",14.8,16.8,,55.4,-629,206,39,1014.4,59.2,0
"2020-11-28 17:42:39+00",11.1,13.1,,56.1,-448,215,69,1014.41,59.4,0
"2020-11-28 17:47:39+00",12.6,15.6,,56.2,-533,215,20,1014.43,59.6,0
"2020-11-28 17:52:39+00",14.2,16.2,,55.8,-584,302,16,1014.52,59.3,0
"2020-11-28 17:57:39+00",12.6,14.6,,56,-521,232,22,1014.57,59.2,0
"2020-11-28 18:02:39+00",12.9,14.9,,56,-563,167,33,1014.54,59.3,0
"2020-11-28 18:07:39+00",12.1,13.1,,55.5,-506,169,22,1014.64,59.2,0
"2020-11-28 18:12:39+00",11.9,13.9,,55.7,-522,174,26,1014.68,58.6,0
"2020-11-28 18:17:39+00",15.2,18.2,,55.5,-562,381,16,1014.71,57.7,0
"2020-11-28 18:22:39+00",11.6,14.6,,55.4,-494,176,16,1014.74,57.1,0
"2020-11-28 18:27:39+00",12.6,14.6,,55.6,-553,177,32,1014.7,57.1,0
"2020-11-28 18:32:39+00",14.3,16.3,,55.3,-595,292,29,1014.8,56.7,0
"2020-11-28 18:37:39+00",14.8,17.8,,55.5,-639,238,14,1014.81,56.6,0
"2020-11-28 18:42:39+00",15.6,17.6,,55.4,-652,275,34,1014.79,56.5,0
"2020-11-28 18:47:39+00",16.3,18.3,,55.4,-712,203,33,1014.79,56.7,0
"2020-11-28 18:52:39+00",14.9,18.9,,55.1,-642,215,16,1014.82,56.4,0
"2020-11-28 18:57:39+00",14.8,15.8,,55.1,-648,224,28,1014.7,56.1,0
"2020-11-28 19:02:39+00",14.4,16.4,,55.1,-549,367,32,1014.79,56,0
"2020-11-28 19:07:39+00",13.6,15.6,,55.7,-491,350,31,1014.81,56.7,0
"2020-11-28 19:12:39+00",15.2,17.2,,55.5,-565,405,32,1014.78,56.9,0
"2020-11-28 19:17:39+00",13.1,17.1,,55.1,-497,328,35,1014.85,56.1,0
"2020-11-28 19:22:39+00",12.7,14.7,,54.9,-467,316,41,1014.74,55.6,0
"2020-11-28 19:27:39+00",15.8,17.8,,54.9,-653,329,25,1014.86,55.3,0
"2020-11-28 19:32:39+00",13.9,15.9,,55.3,-583,264,36,1014.72,55.6,0
"2020-11-28 19:37:39+00",12.2,15.2,,54.9,-492,173,31,1014.65,55.6,0
"2020-11-28 19:42:39+00",11.1,15.1,,54.8,-465,170,43,1014.65,55.5,0
"2020-11-28 19:47:39+00",16.2,18.2,,55,-692,253,22,1014.73,55.7,0
"2020-11-28 19:52:39+00",13.1,15.1,,55,-566,172,45,1014.72,56,0
"2020-11-28 19:57:39+00",12.8,14.8,,54.9,-544,180,33,1014.75,56.2,0
"2020-11-28 20:02:39+00",14.0,16.0,,54.9,-590,216,14,1014.86,56.3,0
"2020-11-28 20:07:39+00",14.8,16.8,,54.9,-633,222,36,1014.88,56.4,0
"2020-11-28 20:12:39+00",14.0,18.0,,55.1,-581,253,25,1014.94,56.4,0
"2020-11-28 20:17:39+00",17.3,20.3,,55.1,-725,321,25,1015.05,56.1,0
"2020-11-28 20:22:39+00",15.1,18.1,,54.9,-640,256,43,1015.14,55.6,0
"2020-11-28 20:27:39+00",15.9,17.9,,54.8,-647,304,14,1015.18,55.6,0
"2020-11-28 20:32:39+00",16.2,18.2,,54.8,-658,346,38,1015.27,55.5,0
"2020-11-28 20:37:39+00",16.8,21.8,,54.8,-686,329,38,1015.27,55.3,0
"2020-11-28 20:42:39+00",15.6,17.6,,54.7,-636,326,43,1015.38,55.1,0
"2020-11-28 20:47:39+00",15.1,18.1,,54.5,-590,339,15,1015.42,54.9,0
"2020-11-28 20:52:39+00",13.2,14.2,,54.2,-494,321,22,1015.6,54.4,0
"2020-11-28 20:57:39+00",12.2,14.2,,54,-470,274,21,1015.61,54,0
"2020-11-28 21:02:39+00",11.5,14.5,,53.9,-474,232,40,1015.68,53.6,0
"2020-11-28 21:07:39+00",11.6,13.6,,53.8,-481,220,32,1015.78,53.3,0
"2020-11-28 21:12:39+00",12.0,13.0,,53.7,-491,219,19,1015.85,53.1,0
"2020-11-28 21:17:39+00",11.6,13.6,,53.5,-477,218,17,1015.86,52.9,0
"2020-11-28 21:22:39+00",12.7,13.7,,53.5,-524,225,19,1015.95,52.6,0
"2020-11-28 21:27:39+00",11.6,12.6,,53.3,-462,223,18,1016.08,52.4,0
"2020-11-28 21:32:39+00",11.7,13.7,,53.1,-489,227,10,1016.1,52.2,0
"2020-11-28 21:37:39+00",11.3,12.3,,53.1,-459,218,20,1016.15,51.9,0
"2020-11-28 21:42:39+00",10.4,12.4,,53,-411,220,20,1016.31,51.7,0
"2020-11-28 21:47:39+00",10.1,12.1,,53,-403,205,14,1016.35,51.5,0
"2020-11-28 21:52:39+00",10.0,11.0,,52.8,-402,205,11,1016.42,51.3,0
"2020-11-28 21:57:39+00",9.4,9.4,,52.7,-373,179,15,1016.47,51.1,0
"2020-11-28 22:02:39+00",9.3,10.3,,52.6,-388,174,11,1016.55,51,0
"2020-11-28 22:07:39+00",9.3,10.3,,52.5,-392,152,9,1016.69,50.8,0
"2020-11-28 22:12:39+00",8.0,9.0,,52.3,-331,150,9,1016.74,50.5,0
"2020-11-28 22:17:39+00",8.9,10.9,,52,-363,197,7,1016.84,50.3,0
"2020-11-28 22:22:39+00",9.5,10.5,,52,-377,199,15,1017.04,50.2,0
"2020-11-28 22:27:39+00",9.7,10.7,,52,-385,215,15,1017.01,50.1,0
"2020-11-28 22:32:39+00",9.7,10.7,,51.9,-373,225,13,1017.07,50,0
"2020-11-28 22:37:39+00",10.3,11.3,,51.8,-403,233,15,1017.13,50,0
"2020-11-28 22:42:39+00",9.2,10.2,,51.5,-358,220,19,1017.24,49.9,0
"2020-11-28 22:47:39+00",9.0,10.0,,51.5,-340,228,20,1017.19,49.9,0
"2020-11-28 22:52:39+00",8.8,9.8,,51.4,-312,233,20,1017.23,49.8,0
"2020-11-28 22:57:39+00",9.3,10.3,,51,-365,208,26,1017.21,49.7,0
"2020-11-28 23:02:39+00",10.3,11.3,,50.8,-393,247,22,1017.35,49.4,0
"2020-11-28 23:07:39+00",9.4,10.4,,50.6,-344,220,17,1017.38,49.3,0
"2020-11-28 23:12:39+00",9.5,11.5,,50.5,-348,236,13,1017.4,49.2,0
"2020-11-28 23:17:39+00",11.0,13.0,,50.4,-395,273,24,1017.51,49.1,0
"2020-11-28 23:22:39+00",9.9,11.9,,50.3,-360,259,24,1017.72,49.1,0
"2020-11-28 23:27:39+00",10.8,11.8,,50.1,-388,300,21,1017.7,49.1,0
"2020-11-28 23:32:39+00",8.4,9.4,,50,-290,249,18,1017.68,48.9,0
"2020-11-28 23:37:39+00",8.3,9.3,,50,-284,230,15,1017.89,48.8,0
"2020-11-28 23:42:39+00",8.9,10.9,,50,-295,251,27,1017.89,48.7,0
"2020-11-28 23:47:39+00",9.1,10.1,,50,-297,280,21,1017.9,48.7,0
"2020-11-28 23:52:39+00",8.9,9.9,,49.8,-262,291,9,1017.94,48.5,0
"2020-11-28 23:57:39+00",9.7,10.7,,49.6,-266,340,19,1017.92,48.1,0
